Regional Weather Roundup
Issued by NWS Cleveland, OH

Home | Current Version | Previous Version | Text Only | Print | Product List | Glossary Off
Versions: 1 2 3 4 5 6 7 8 9 10 11 12 13 14 15 16 17 18 19 20 21 22 23 24 25 26 27 28 29 30 31 32 33 34 35 36 37 38 39 40 41 42 43 44 45 46 47 48 49 50

000
ASUS41 KCLE 190610
RWRCLE
OHIO REGIONAL WEATHER ROUNDUP
NATIONAL WEATHER SERVICE CLEVELAND, OH
200 AM EDT SAT AUG 19 2017

NOTE: "FAIR" INDICATES FEW OR NO CLOUDS BELOW 12,000 FEET WITH NO
SIGNIFICANT WEATHER AND/OR OBSTRUCTIONS TO VISIBILITY.

OHZ001>008-015>018-024>027-034-035-043-044-190700-
   NORTHWEST OHIO

CITY           SKY/WX    TMP DP  RH WIND       PRES   REMARKS
DEFIANCE       CLEAR     63  62  97 CALM      29.90F
FINDLAY        CLEAR     67  62  84 SE3       29.90F
TOLEDO EXPRESS MOCLDY    64  64 100 CALM      29.90S
TOLEDO EXEC    CLOUDY    67  64  90 S3        29.91S
LIMA           CLEAR     66  64  93 S7        29.92S
$$

OHZ009>014-019>023-028>033-038-089-190700-
   NORTHEAST OHIO

CITY           SKY/WX    TMP DP  RH WIND       PRES   REMARKS
CLE-HOPKINS    PTCLDY    68  63  84 SW5       29.92S
CLE-LAKEFRONT  PTCLDY    71  63  75 SW8       29.89S
CUY CO. ARPT   NOT AVBL
LORAIN-ELYRIA  PTCLDY    64  59  83 CALM      29.92R
ASHTABULA      PTCLDY    64  63  96 CALM      29.90F
AKRON-CANTON   CLEAR     66  60  81 S5        29.93S
WOOSTER        CLEAR     60  59  96 CALM      29.93S
MANSFIELD      CLEAR     66  62  87 SW3       29.94R
YOUNGSTOWN     PTCLDY    64  62  93 SW3       29.92S
$$

OHZ042-051>053-060>062-070>072-077>081-190700-
  SOUTHWEST OHIO

CITY           SKY/WX    TMP DP  RH WIND       PRES   REMARKS
CINC-COVINGTON CLEAR     71  66  84 W3        29.96S
CINC-LUNKEN    CLOUDY    66  66 100 CALM      29.95S
HAMILTON       PTCLDY    68  67  96 W3        29.96S
DAYTON         CLEAR     65  62  90 W7        29.96S
WRIGHT-PAT AFB PTCLDY    68  65  91 S6        29.94F
DAYTON GENERAL PTCLDY    70  63  78 SW5       29.95S
WILMINGTON     CLEAR     67  65  93 W6        29.95S
$$

OHZ036-037-039>041-045>050-054>059-063>069-073>076-082>088-190700-
  CENTRAL AND SOUTHEAST OHIO

CITY           SKY/WX    TMP DP  RH WIND       PRES   REMARKS
COLUMBUS       PTCLDY    70  65  84 W3        29.93S
OSU AIRPORT    CLEAR     67  65  93 W3        29.94R
BOLTON FIELD   CLEAR     64  63  98 SW3       29.95S
RICKENBACK AFB CLEAR     66  64  94 CALM      29.94S
NEWARK         CLEAR     64  63  96 CALM      29.94R
MARION         CLEAR     67  62  84 SW5       29.94R
LANCASTER      CLEAR     64  63  96 CALM      29.95R
ZANESVILLE     CLEAR     66  64  93 SW3       29.94R
NEW PHILLY     NOT AVBL
$$



USA.gov is the U.S. government's official web portal to all federal, state and local government web resources and services.